www.pogodaiklimat.ru
ПОГОДА в Пхаттхалунг Агромете

Архив погоды в Пхаттхалунг Агромете (Таиланд)

Время
(UTC), дата
15 9.06
18 9.06
21 9.06
00 10.06
03 10.06
06 10.06
09 10.06
12 10.06
15 10.06
18 10.06
21 10.06
00 11.06
03 11.06
06 11.06
09 11.06
12 11.06
15 11.06
18 11.06
21 11.06
00 12.06
03 12.06
06 12.06
09 12.06
12 12.06
15 12.06
18 12.06
21 12.06
00 13.06
03 13.06
06 13.06
09 13.06
12 13.06
15 13.06
18 13.06
21 13.06
00 14.06
03 14.06
06 14.06
09 14.06
12 14.06
15 14.06
18 14.06
21 14.06
00 15.06
03 15.06
06 15.06
09 15.06
12 15.06
15 15.06
18 15.06
21 15.06
00 16.06
03 16.06
06 16.06
09 16.06
Ветер
(напр.,м/с)
Видим. Явления Облачность Т
(С)
Тd
(С)
f
(%)
Тe
(С)
Тes
(С)
Комфортность P
(гПа)
Po
(гПа)
Тmin
(С)
Tmax
(С)
R
(мм)
R24
(мм)
S
(см)
штиль 0 8000 м дымка 1/0
[Ci fib]
+29.1 +23.0 70 +39 +39 очень душно 1009.8 1008.5
штиль 0 8000 м дымка 3/0
[Ci sp]
+26.5 +24.3 88 +37 +37 очень душно 1009.2 1007.9
штиль 0 8000 м дымка 6/1 600 м
[Cu med, cong Cs]
+25.6 +24.4 93 +36 +36 очень душно 1008.4 1007.0
штиль 0 8000 м дымка 10/3 600 м
[Cu med, cong Ac As Cs]
+25.8 +24.9 95 +37 +37 очень душно 1009.9 1008.5 +25.6
З 2 10 км 10/3 600 м
[Cu med, cong Ac As Cs]
+32.6 +23.7 60 +44 +49 очень душно 1010.2 1008.8
СЗ 5 10 км 4/3 600 м
[Cu med, cong Ci sp]
+35.2 +19.9 41 +41 +48 опасность перегрева 1008.8 1007.5
З 4 10 км 8/4 600 м
[Cu Sc Ac und Cs]
+34.0 +23.2 53 +44 +46 очень душно 1007.6 1006.3
З 1 8000 м дымка 10/3 600 м
[Cu med, cong Cs]
+30.6 +23.7 67 +42 +42 очень душно 1008.4 1007.1 +35.7
З 2 8000 м дымка 8/1 600 м
[Cu med, cong Cs]
+28.2 +24.5 80 +40 +40 очень душно 1010.7 1009.3
штиль 0 8000 м дымка 9/1 600 м
[Cu med, cong Cs]
+26.6 +24.7 89 +38 +38 очень душно 1011.1 1009.7
штиль 0 8000 м дымка 10/1 600 м
[Cu med, cong Ac und Cs]
+26.1 +24.7 92 +37 +37 очень душно 1010.0 1008.6
штиль 0 8000 м дымка 6/3 600 м
[Cu med, cong Ac und Cs]
+26.1 +25.5 97 +38 +39 очень душно 1011.3 1010.0 +25.6
В 3 10 км 4/1 600 м
[Cu med, cong Ci fib]
+32.7 +25.4 66 +47 +58 очень душно 1012.2 1010.8
штиль 0 10 км 8/4 600 м
[Cu med, cong Ac lent Ci sp]
+33.7 +24.0 57 +46 +56 очень душно 1010.0 1008.7
ЮЗ 2 12 км 3/3 600 м
[Cu hum Ci sp]
+34.9 +19.9 41 +41 +46 очень душно 1008.6 1007.2
штиль 0 10 км 8/1 600 м
[Cu hum Ac und Cs]
+31.2 +21.4 56 +39 +39 очень душно 1009.7 1008.3 +35.6
штиль 0 9000 м дымка 8/1 600 м
[Cu hum Ac lent Cs]
+28.4 +24.1 78 +40 +40 очень душно 1011.4 1010.1
штиль 0 8000 м дымка 5/1 600 м
[Cu hum Ac lent Cs]
+26.4 +23.5 84 +36 +36 очень душно 1011.2 1009.9
штиль 0 8000 м дымка 4/1 600 м
[Cu hum Ci sp]
+25.9 +24.2 90 +36 +36 очень душно 1010.9 1009.6
штиль 0 8000 м дымка 3/0
[Ci fib]
+25.3 +24.4 95 +35 +37 очень душно 1012.7 1011.4 +25.1
Ю 2 10 км 3/3 600 м
[Cu hum Ci fib]
+33.1 +24.4 60 +45 +55 очень душно 1013.0 1011.6
СЗ 3 12 км 3/3 600 м
[Cu hum Ci fib]
+36.0 +23.1 47 +46 +58 опасность перегрева 1010.5 1009.2
штиль 0 12 км 3/3 600 м
[Cu hum]
+36.3 +20.2 39 +42 +49 опасность перегрева 1009.1 1007.8
З 1 10 км 3/1 600 м
[Cu hum Ci fib]
+32.1 +21.6 54 +40 +40 очень душно 1010.0 1008.7 +37.0
штиль 0 9000 м дымка 4/1 600 м
[Cu hum Ci sp]
+29.5 +22.9 68 +39 +39 очень душно 1011.8 1010.4
штиль 0 8000 м дымка 4/1 600 м
[Cu hum Ci sp]
+28.6 +23.8 75 +39 +39 очень душно 1011.5 1010.1
СЗ 3 8000 м дымка 3/1 600 м
[Cu hum Ci fib]
+28.4 +25.0 82 +41 +41 очень душно 1010.9 1009.6
С 1 8000 м дымка 6/1 600 м
[Cu hum Ac trans Cs]
+28.7 +24.1 76 +40 +41 очень душно 1011.7 1010.4 +27.7
СЗ 4 10 км 4/1 600 м
[Cu hum Ac und Ci sp]
+32.4 +24.1 62 +45 +52 очень душно 1011.5 1010.2
СЗ 2 12 км 8/3 600 м
[Cu hum Ac lent Cs]
+35.4 +23.4 50 +46 +56 опасность перегрева 1009.2 1007.9
СЗ 2 12 км 8/3 600 м
[Cu hum Ac und Cs]
+34.7 +22.7 50 +44 +48 очень душно 1007.5 1006.1
СЗ 1 10 км 6/1 600 м
[Cu hum Ac und Cs]
+31.2 +23.7 64 +42 +42 очень душно 1008.4 1007.0 +36.1
З 1 8000 м дымка 8/3 600 м
[Cu hum Cs]
+29.3 +24.0 73 +41 +41 очень душно 1010.0 1008.6
З 2 8000 м дымка 5/1 600 м
[Cu hum Cs]
+27.5 +23.6 79 +37 +37 очень душно 1009.8 1008.4
СЗ 1 8000 м дымка 8/1 600 м
[Cu hum Ac trans Cs]
+27.2 +23.9 82 +37 +37 очень душно 1008.7 1007.4
СЗ 2 8000 м дымка 3/1 600 м
[Cu hum Ac und Ci sp]
+28.0 +24.6 82 +40 +41 очень душно 1009.5 1008.2 +27.2
штиль 0 12 км 3/1 600 м
[Cu med, cong Ci sp]
+32.6 +23.4 58 +43 +60 очень душно 1009.4 1008.0
СЗ 2 12 км 6/1 600 м
[Cu med, cong Ci sp]
+35.2 +22.8 49 +45 +62 опасность перегрева 1007.3 1006.0
СЗ 3 12 км 6/3 600 м
[Cu med, cong Ci sp]
+36.1 +22.3 45 +45 +49 опасность перегрева 1005.4 1004.1
З 1 10 км 6/1 600 м
[Cu hum Ci sp]
+32.5 +23.7 60 +44 +44 очень душно 1006.1 1004.7 +37.0
СЗ 2 8000 м дымка 6/1 600 м
[Cu med, cong Ci sp]
+30.0 +24.6 73 +43 +43 очень душно 1008.5 1007.2
СЗ 1 8000 м дымка 6/1 600 м
[Cu med, cong Ci sp]
+29.1 +24.7 77 +41 +41 очень душно 1008.6 1007.3
З 2 8000 м дымка 6/1 600 м
[Cu med, cong Ci sp]
+28.4 +24.7 80 +40 +40 очень душно 1007.2 1005.8
штиль 0 8000 м дымка 8/1 600 м
[Cu med, cong Ac und Cs]
+27.3 +25.9 92 +41 +41 очень душно 1008.2 1006.8 +27.3
СЗ 2 10 км 9/1 600 м
[Cu med, cong Ac und Cs]
+32.0 +25.7 69 +47 +54 очень душно 1008.4 1007.0
З 1 10 км 10/3 600 м
[Cu med, cong Ac und Cs]
+33.7 +24.2 58 +46 +54 очень душно 1006.7 1005.4
СЗ 2 10 км 10/3 600 м
[Cu med, cong Ac As Cs]
+33.9 +22.6 52 +44 +46 очень душно 1005.1 1003.8
штиль 0 8000 м дымка 10/3 600 м
[Cu med, cong Ac und Cs]
+31.5 +24.5 66 +44 +44 очень душно 1005.7 1004.4 +35.2
СЗ 3 8000 м дымка 6/1 600 м
[Cu med, cong Ci sp]
+29.8 +24.5 73 +42 +42 очень душно 1008.0 1006.6
З 2 8000 м дымка 6/1 600 м
[Cu med, cong Cs]
+29.5 +24.5 75 +42 +42 очень душно 1007.8 1006.5
штиль 0 8000 м дымка 9/1 600 м
[Cu med, cong Ac und Cs]
+28.4 +24.7 80 +40 +40 очень душно 1007.2 1005.8
штиль 0 7000 м дымка 10/3 600 м
[Cu med, cong Ac As Cs]
+26.9 +25.6 93 +40 +40 очень душно 1008.4 1007.1 +26.9
Ю 1 8000 м дымка 10/1 600 м
[Cu med, cong Ac As Cs]
+30.0 +26.2 80 +45 +53 очень душно 1009.7 1008.4
СЗ 3 10 км 10/3 600 м
[Cu med, cong Ac und Cs]
+34.0 +23.4 54 +45 +51 очень душно 1007.7 1006.3
В 2 3000 м гроза, ливневой дождь 10/4 300 м
[Cb cap Ac As Cs]
+25.8 +25.2 96 +37 +39 очень душно 1007.4 1006.0 20
Местоположение метеостанции Пхаттхалунг Агромет (Таиланд): широта 7.58 долгота 100.17 высота над уровнем моря 4 м.
В архиве по умолчанию представлена погода в Пхаттхалунг Агромете за последнюю неделю. Архивные данные за месяц целиком и за предыдущие месяцы, начиная с января 2011 года, Вы можете получить, выбрав интересующий диапазон дат из раскрывающегося списка и нажав кнопку "Найти!".
*Определитесь, кто Вы:
Внимание! Время в таблицах - всемирное. Для получения местного времени необходимо прибавить поправку, которая равна 7 ч.
Некоторые строки с данными для отдельных станций могут быть выделены курсивом. Это означает, что фактические данные отсутствуют по различным причинам, а приведенные значения являются расчетными модельными данными для данного пункта наблюдений.
Смотрите также архив погоды в соседних городах и на ближайших метеорологических станциях:
Партнеры нашего сайта:      
Пояснения к столбцам:
  • Ветер - указаны скорость ветра в м/с - средняя за 10 мин, порывы в срок и между сроками (в фигурных скобках) и направление, откуда дует ветер: С - северный,
  • СВ - северо-восточный, В - восточный, ЮВ - юго-восточный, Ю - южный, ЮЗ - юго-западный, З - западный, СЗ - северо-западный.
  • Видимость - горизонтальная дальность видимости в метрах или километрах. При видимости от 1 до 10 км при отсутствии осадков обычно наблюдается дымка, при ухудшении видимости до 1 км и менее - туман. В сухую погоду видимость может ухудшаться дымом, пылью или мглою.
  • Явления - указаны атмосферные явления, наблюдавшиеся в срок или в последний час перед сроком; фигурными скобками обозначены явления, наблюдавшиеся между сроками (за 1-3 часа до срока); квадратными скобками обозначены град или гололедные отложения с указанием их диаметра в мм.
  • Облачность - указаны через наклонную черту общая и нижняя облачность в баллах и высота нижней границы облаков в метрах; квадратными скобками обозначены формы облаков: Ci - перистые, Cs - перисто-слоистые, Cc - перисто-кучевые, Ac - высококучевые, As - высокослоистые, Sc - слоисто-кучевые, Ns - слоисто-дождевые, Cu - кучевые, Cb - кучево-дождевые. Подробнее классификацию облаков см. в Атласе облаков (PDF).
  • T - Температура воздуха - температура, измеренная на высоте 2 м над землей.
  • Td - Температура точки росы - температура, при понижении до которой содержащийся в воздухе водяной пар достигнет насыщения.
  • f - Относительная влажность воздуха - влажноcть воздуха, измеренная на высоте 2 м над землей.
  • Te - Эффективная температура - температура, которую ощущает одетый по сезону человек в тени. Характеристика душности погоды. При расчете учитывается влияние влажности воздуха и скорости ветра на теплоощущения человека.
  • Tes - Эффективная температура на солнце - температура, которую ощущает человек, с поправкой на солнечный нагрев. Характеристика знойности погоды. Зависит от высоты солнца над горизонтом, облачности и скорости ветра. Ночью, в пасмурную погоду, а также при ветре 12 м/с и более поправка равна нулю.
  • P - Атмосферное давление - приведенное к уровню моря атмосферное давление.
  • Po - Атмосферное давление - измеренное на уровне метеостанции атмосферное давление.
  • Tmin - Минимальная температура - минимум температуры воздуха на высоте 2 м над землей.
  • Tmax - Максимальная температура - максимум температуры воздуха на высоте 2 м над землей.
  • R - Количество осадков - Количество выпавших осадков за период времени, мм. При наведении курсора мыши на число - период времени, за который выпало указанное количество осадков.
  • R24 - Количество осадков - Количество выпавших осадков за 24 часа, мм.
  • S - Снежный покров - Высота снежного покрова, см. При наведении курсора мыши на число - состояние снежного покрова и степень покрытия местности в баллах.